Weather History for Big Rapids, MI

Change the Weather History Date:

Friday, August 10, 2012

  Actual Average Record
Temperature  
Mean Temperature 58 °F -  
Max Temperature 60 °F 78 °F 89 °F (1992)
Min Temperature 56 °F 55 °F 41 °F (1972)
Degree Days  
Heating Degree Days 7    
Growing Degree Days 8 (Base 50)    
Moisture  
Dew Point 57 °F    
Average Humidity 96    
Maximum Humidity 100    
Minimum Humidity 84    
Precipitation  
Precipitation 0.00 in - - ()
Sea Level Pressure  
Sea Level Pressure 29.85 in    
Wind  
Wind Speed 8 mph (North)    
Max Wind Speed 16 mph    
Max Gust Speed 23 mph    
Visibility 9 miles    
Events Rain    
Averages and records for this station are not official NWS values.
T = Trace of Precipitation, MM = Missing Value Source: NWS Daily Summary

Daily Weather History Graph

Daily Weather History Graph

Search for Another Location

Airport:

Trip Planner

Search our weather history database for the weather conditions in past years. The results will help you decide how hot, cold, wet, or windy it might be!

Date:

Astronomy

Aug. 10, 2012 Rise Set
Actual Time 6:41 AM EDT 8:52 PM EDT
Civil Twilight 6:09 AM EDT 9:23 PM EDT
Nautical Twilight 5:30 AM EDT 10:02 PM EDT
Astronomical Twilight 4:47 AM EDT 10:45 PM EDT
Moon 12:27 AM EDT (8/10) 3:35 PM EDT (8/10)
Length of Visible Light 15h 14m
Length of Day
14h 11m
Last Quarter, 42% of the Moon is Illuminated
Aug 10
Last Quarter
Aug 17
New
Aug 24
First Quarter
Aug 31
Full
Sep 8
Last Quarter

Hourly Weather History & Observations

Time (EDT) Temp. Dew Point Humidity Pressure Visibility Wind Dir Wind Speed Gust Speed Precip Events Conditions
12:14 AM 59.9 °F 55.6 °F 86% 29.90 in 10.0 mi NE 6.9 mph - N/A   Overcast
12:54 AM 60.1 °F 55.4 °F 85% 29.88 in 10.0 mi NNE 5.8 mph - N/A   Overcast
1:14 AM 60.3 °F 55.4 °F 84% 29.88 in 10.0 mi NNE 6.9 mph - N/A   Overcast
1:34 AM 59.9 °F 55.8 °F 86% 29.87 in 10.0 mi NNE 6.9 mph - N/A Rain Light Rain
1:55 AM 59.4 °F 56.3 °F 90% 29.88 in 10.0 mi NE 8.1 mph - N/A Rain Light Rain
2:14 AM 59.0 °F 57.2 °F 94% 29.88 in 10.0 mi NE 6.9 mph - N/A Rain Light Rain
2:34 AM 59.0 °F 58.1 °F 97% 29.87 in 10.0 mi NE 9.2 mph - N/A Rain Light Rain
2:54 AM 58.6 °F 57.9 °F 97% 29.87 in 10.0 mi North 5.8 mph - N/A Rain Light Rain
3:14 AM 58.5 °F 58.1 °F 99% 29.86 in 10.0 mi North 4.6 mph - N/A Rain Light Rain
3:34 AM 58.3 °F 57.9 °F 99% 29.86 in 10.0 mi North 4.6 mph - N/A Rain Rain
3:54 AM 58.1 °F 58.1 °F 100% 29.86 in 10.0 mi North 5.8 mph - N/A Rain Rain
4:14 AM 58.1 °F 57.9 °F 99% 29.85 in 7.0 mi North 8.1 mph - N/A Rain Heavy Rain
4:34 AM 57.7 °F 57.7 °F 100% 29.85 in 5.0 mi North 6.9 mph - N/A Rain Rain
4:54 AM 57.4 °F 57.2 °F 99% 29.85 in 7.0 mi North 5.8 mph - N/A Rain Rain
5:14 AM 57.2 °F 57.2 °F 100% 29.85 in 10.0 mi North 5.8 mph - N/A Rain Rain
5:34 AM 56.8 °F 56.5 °F 99% 29.85 in 10.0 mi North 6.9 mph - N/A Rain Rain
5:54 AM 56.7 °F 56.3 °F 99% 29.85 in 10.0 mi North 8.1 mph - N/A Rain Rain
6:14 AM 56.5 °F 56.3 °F 99% 29.84 in 10.0 mi North 10.4 mph - N/A Rain Light Rain
6:34 AM 56.3 °F 55.8 °F 98% 29.84 in 10.0 mi North 9.2 mph - N/A Rain Rain
6:54 AM 56.1 °F 55.6 °F 98% 29.84 in 10.0 mi North 6.9 mph - N/A Rain Rain
7:14 AM 56.1 °F 55.6 °F 98% 29.85 in 10.0 mi North 8.1 mph - N/A Rain Light Rain
7:34 AM 56.5 °F 55.8 °F 97% 29.85 in 10.0 mi North 10.4 mph - N/A Rain Light Rain
7:54 AM 56.5 °F 55.8 °F 97% 29.85 in 10.0 mi North 8.1 mph - N/A Rain Light Rain
8:15 AM 56.8 °F 55.9 °F 97% 29.85 in 10.0 mi North 8.1 mph 18.4 mph N/A Rain Light Rain
8:34 AM 57.0 °F 56.1 °F 97% 29.85 in 10.0 mi North 9.2 mph - N/A   Overcast
8:54 AM 57.0 °F 56.3 °F 97% 29.85 in 10.0 mi North 9.2 mph - N/A Rain Light Rain
9:15 AM 57.2 °F 56.3 °F 97% 29.85 in 10.0 mi North 8.1 mph - N/A Rain Rain
9:34 AM 57.2 °F 56.3 °F 97% 29.85 in 10.0 mi North 10.4 mph 18.4 mph N/A Rain Rain
9:54 AM 57.2 °F 56.3 °F 97% 29.85 in 10.0 mi North 8.1 mph 16.1 mph N/A Rain Rain
10:15 AM 57.2 °F 56.3 °F 97% 29.84 in 10.0 mi North 11.5 mph 16.1 mph N/A Rain Light Rain
10:34 AM 57.2 °F 56.1 °F 96% 29.84 in 10.0 mi North 11.5 mph 17.3 mph N/A Rain Rain
10:54 AM 56.8 °F 55.9 °F 97% 29.83 in 10.0 mi North 11.5 mph - N/A Rain Rain
11:15 AM 57.2 °F 56.3 °F 97% 29.83 in 10.0 mi North 10.4 mph 18.4 mph N/A Rain Light Rain
11:54 AM 57.0 °F 55.6 °F 95% 29.84 in 10.0 mi North 16.1 mph 20.7 mph N/A Rain Light Rain
12:15 PM 57.0 °F 55.6 °F 95% 29.83 in 10.0 mi North 12.7 mph 18.4 mph N/A Rain Light Rain
12:34 PM 57.2 °F 56.3 °F 97% 29.83 in 10.0 mi North 12.7 mph 18.4 mph N/A Rain Light Rain
12:54 PM 57.6 °F 56.3 °F 96% 29.83 in 10.0 mi North 13.8 mph 23.0 mph N/A Rain Light Rain
1:14 PM 57.6 °F 56.3 °F 96% 29.82 in 10.0 mi North 13.8 mph 23.0 mph N/A Rain Light Rain
1:34 PM 57.2 °F 55.6 °F 94% 29.82 in 10.0 mi North 12.7 mph 19.6 mph N/A Rain Rain
1:54 PM 56.7 °F 55.2 °F 95% 29.82 in 10.0 mi NNW 15.0 mph 23.0 mph N/A Rain Light Rain
2:15 PM 56.8 °F 55.6 °F 96% 29.82 in 10.0 mi North 13.8 mph - N/A Rain Rain
2:34 PM 57.2 °F 55.8 °F 95% 29.82 in 7.0 mi North 11.5 mph 21.9 mph N/A Rain Rain
2:54 PM 56.7 °F 55.8 °F 97% 29.82 in 7.0 mi North 12.7 mph 23.0 mph N/A Rain Light Rain
3:14 PM 57.2 °F 56.3 °F 97% 29.83 in 10.0 mi North 9.2 mph - N/A Rain Light Rain
3:34 PM 57.6 °F 56.5 °F 96% 29.83 in 10.0 mi North 8.1 mph - N/A Rain Light Rain
3:54 PM 58.1 °F 56.8 °F 96% 29.83 in 10.0 mi North 9.2 mph 16.1 mph N/A Rain Light Rain
4:14 PM 58.5 °F 57.4 °F 96% 29.83 in 10.0 mi North 8.1 mph - N/A Rain Rain
4:34 PM 58.3 °F 57.9 °F 99% 29.84 in 4.0 mi NNW 9.2 mph - N/A Rain Rain
4:54 PM 58.5 °F 58.1 °F 99% 29.85 in 4.0 mi NNW 5.8 mph - N/A Rain Heavy Rain
5:14 PM 58.5 °F 58.3 °F 99% 29.86 in 5.0 mi North 4.6 mph - N/A Rain Heavy Rain
5:34 PM 58.3 °F 58.3 °F 100% 29.86 in 4.0 mi North 3.5 mph - N/A Rain Heavy Rain
5:54 PM 58.3 °F 58.3 °F 100% 29.86 in 4.0 mi Calm Calm - N/A Rain Rain
6:14 PM 58.6 °F 58.6 °F 100% 29.87 in 7.0 mi North 3.5 mph - N/A Rain Rain
6:34 PM 58.6 °F 58.6 °F 100% 29.86 in 5.0 mi North 4.6 mph - N/A Rain Rain
6:54 PM 59.0 °F 59.0 °F 100% 29.86 in 7.0 mi NNW 5.8 mph - N/A Rain Rain
7:14 PM 59.0 °F 58.1 °F 97% 29.86 in 7.0 mi NNW 8.1 mph - N/A Rain Light Rain
7:34 PM 59.2 °F 58.1 °F 96% 29.86 in 10.0 mi NNW 6.9 mph - N/A   Overcast
7:54 PM 59.4 °F 57.9 °F 95% 29.86 in 10.0 mi NNW 6.9 mph - N/A   Overcast
8:14 PM 59.5 °F 58.1 °F 95% 29.86 in 10.0 mi NNW 8.1 mph - N/A   Overcast
8:34 PM 59.7 °F 58.1 °F 94% 29.86 in 10.0 mi NNW 6.9 mph - N/A   Overcast
8:54 PM 59.9 °F 58.1 °F 94% 29.86 in 10.0 mi NNW 9.2 mph - N/A   Overcast
9:14 PM 60.1 °F 57.6 °F 91% 29.86 in 10.0 mi NNW 8.1 mph - N/A   Overcast
9:34 PM 59.9 °F 57.6 °F 92% 29.86 in 10.0 mi NNW 4.6 mph - N/A   Overcast
9:55 PM 59.9 °F 57.6 °F 92% 29.86 in 10.0 mi NNW 5.8 mph - N/A   Overcast
10:34 PM 59.9 °F 57.2 °F 91% 29.85 in 10.0 mi NNW 6.9 mph - N/A   Overcast
10:55 PM 59.5 °F 56.8 °F 91% 29.85 in 10.0 mi NNW 8.1 mph - N/A   Overcast
11:14 PM 59.5 °F 56.5 °F 90% 29.85 in 10.0 mi NNW 8.1 mph - N/A   Overcast
11:34 PM 59.2 °F 56.5 °F 91% 29.85 in 10.0 mi NNW 6.9 mph - N/A   Overcast
11:55 PM 59.5 °F 56.5 °F 90% 29.84 in 10.0 mi NNW 8.1 mph - N/A   Mostly Cloudy